This is the latest recevied weather packets stored in our database for station/object KH6HHG. If no packets are shown the sender has not sent any weather packets the latest 10 day(s).
| Time | Temp. | Humidity | Pressure | Rain* | Wind** | Luminosity | Snow |
|---|---|---|---|---|---|---|---|
| 1777695998 | 20.56° C | 79% | 1011.8 hPa | 0 mm | - | - | - |
| 1777695698 | 20.56° C | 78% | 1011.7 hPa | 0 mm | - | - | - |
| 1777695398 | 21.11° C | 76% | 1011.6 hPa | 0 mm | - | - | - |
| 1777695098 | 21.11° C | 76% | 1011.6 hPa | 0 mm | - | - | - |
| 1777694798 | 21.67° C | 74% | 1011.6 hPa | 0 mm | - | - | - |
| 1777694498 | 21.67° C | 73% | 1011.4 hPa | 0 mm | - | - | - |
| 1777694198 | 21.67° C | 73% | 1011.5 hPa | 0 mm | - | - | - |
| 1777693898 | 21.67° C | 74% | 1011.4 hPa | 0 mm | - | - | - |
| 1777693598 | 21.67° C | 75% | 1011.5 hPa | 0 mm | - | - | - |
| 1777693298 | 21.67° C | 74% | 1011.4 hPa | 0 mm | - | - | - |
| 1777692998 | 21.67° C | 73% | 1011.5 hPa | 0 mm | - | - | - |
| 1777692698 | 21.67° C | 73% | 1011.4 hPa | 0 mm | - | - | - |
| 1777692398 | 22.22° C | 73% | 1011.3 hPa | 0 mm | - | - | - |
| 1777692098 | 22.22° C | 73% | 1011.4 hPa | 0 mm | - | - | - |
| 1777691798 | 22.22° C | 73% | 1011.3 hPa | 0 mm | - | - | - |
| 1777691498 | 22.78° C | 72% | 1011.1 hPa | 0 mm | - | - | - |
| 1777691198 | 22.78° C | 74% | 1011.1 hPa | 0 mm | - | - | - |
| 1777690898 | 22.78° C | 71% | 1011.1 hPa | 0 mm | - | - | - |
| 1777690602 | 22.78° C | 74% | 1011.1 hPa | 0 mm | - | - | - |
| 1777690298 | 22.78° C | 73% | 1011.1 hPa | 0 mm | - | - | - |
| 1777689998 | 23.33° C | 71% | 1011 hPa | 0 mm | - | - | - |
| 1777689698 | 23.33° C | 71% | 1011 hPa | 0 mm | - | - | - |
| 1777689398 | 23.33° C | 70% | 1011.2 hPa | 0 mm | - | - | - |
| 1777689098 | 23.33° C | 71% | 1011.1 hPa | 0 mm | - | - | - |
| 1777688798 | 23.33° C | 72% | 1011 hPa | 0 mm | - | - | - |
* Rain latest hour (hover to see other rain measurements)
** Current wind speed in m/s (hover to see current wind gust speed)